User: anonymous
Location: Coffee Creek Observatory
(38.8077°N, 94.7179°W)
Time: 01:33:06
(UTC-05:00)
Language:

Lacrosse 4 Rocket - Orbit

View from above orbital plane
View from above orbital plane
View from above satellite
View from above satellite

Ground track
Ground track

The orbit data is extracted from the following two-line orbital elements,

1 26474U 00047B   14213.53035734  .00001708  00000-0  17024-3 0  6917
2 26474 067.9945 218.5298 0058181 032.4714 327.9983 14.92936038758370
Epoch (UTC): 01 August 2014 12:43:42
Eccentricity: 0.0058181
inclination: 67.9945°
perigee height: 548 km
apogee height: 629 km
right ascension of ascending node: 218.5298°
argument of perigee: 32.4714°
revolutions per day: 14.92936038
mean anomaly at epoch: 327.9983°
orbit number at epoch: 75837

The dashed part of the orbit path shows where the satellite is in the earth's shadow,  

DLR